"Period start","avg(HW err(1)/warn(2) (#))","avg(Visibility (m))","avg(Weather code (#))","avg(Precip intensity (mm/h))","min(HW err(1)/warn(2) (#))","max(HW err(1)/warn(2) (#))","std(HW err(1)/warn(2) (#))","med(HW err(1)/warn(2) (#))","min(Visibility (m))","max(Visibility (m))","std(Visibility (m))","med(Visibility (m))","min(Weather code (#))","max(Weather code (#))","std(Weather code (#))","med(Weather code (#))","min(Precip intensity (mm/h))","max(Precip intensity (mm/h))","std(Precip intensity (mm/h))","med(Precip intensity (mm/h))"
2016-08-09 00:00:00,2,49358,0,0.00,2,2,0,2,46664,50000,1126,50000,0,0,0,0,0.00,0.00,0.00,0.00
2016-08-09 00:10:00,2,50000,0,0.00,0,2,1,2,50000,50000,0,50000,0,0,0,0,0.00,0.00,0.00,0.00
2016-08-09 00:20:00,2,49892,0,0.00,2,2,0,2,48925,50000,322,50000,0,0,0,0,0.00,0.00,0.00,0.00
2016-08-09 00:30:00,2,49780,0,0.00,2,2,0,2,47798,50000,661,50000,0,0,0,0,0.00,0.00,0.00,0.00
2016-08-09 00:40:00,2,49686,0,0.00,0,2,1,2,47904,50000,671,50000,0,0,0,0,0.00,0.00,0.00,0.00
2016-08-09 00:50:00,2,49442,0,0.00,2,2,0,2,46455,50000,1165,50000,0,0,0,0,0.00,0.00,0.00,0.00
2016-08-09 01:00:00,2,49538,0,0.00,2,2,0,2,47457,50000,896,50000,0,0,0,0,0.00,0.00,0.00,0.00
2016-08-09 01:10:00,2,48620,0,0.00,2,2,0,2,46350,50000,1497,49176,0,0,0,0,0.00,0.00,0.00,0.00
2016-08-09 01:20:00,2,49882,0,0.00,2,2,0,2,49193,50000,256,50000,0,0,0,0,0.00,0.00,0.00,0.00
2016-08-09 01:30:00,2,49594,0,0.00,2,2,0,2,46965,50000,928,50000,0,0,0,0,0.00,0.00,0.00,0.00
2016-08-09 01:40:00,2,48904,0,0.00,0,2,1,2,43589,50000,2159,50000,0,0,0,0,0.00,0.00,0.00,0.00
2016-08-09 01:50:00,2,49229,0,0.00,0,2,1,2,45661,50000,1502,50000,0,0,0,0,0.00,0.00,0.00,0.00
2016-08-09 02:00:00,2,47390,0,0.00,2,2,0,2,40390,50000,3517,49464,0,0,0,0,0.00,0.00,0.00,0.00
2016-08-09 02:10:00,2,48948,0,0.00,2,2,0,2,46051,50000,1577,50000,0,0,0,0,0.00,0.00,0.00,0.00
"Period start","avg(HW err(1)/warn(2) (#))","avg(Visibility (m))","avg(Weather code (#))","avg(Precip intensity (mm/h))","min(HW err(1)/warn(2) (#))","max(HW err(1)/warn(2) (#))","std(HW err(1)/warn(2) (#))","med(HW err(1)/warn(2) (#))","min(Visibility (m))","max(Visibility (m))","std(Visibility (m))","med(Visibility (m))","min(Weather code (#))","max(Weather code (#))","std(Weather code (#))","med(Weather code (#))","min(Precip intensity (mm/h))","max(Precip intensity (mm/h))","std(Precip intensity (mm/h))","med(Precip intensity (mm/h))"
2016-08-09 02:20:00,2,50000,0,0.00,2,2,0,2,50000,50000,0,50000,0,0,0,0,0.00,0.00,0.00,0.00
2016-08-09 02:30:00,2,49967,0,0.00,2,2,0,2,49666,50000,100,50000,0,0,0,0,0.00,0.00,0.00,0.00
2016-08-09 02:40:00,2,49140,0,0.00,2,2,0,2,41404,50000,2579,50000,0,0,0,0,0.00,0.00,0.00,0.00
2016-08-09 02:50:00,2,48780,0,0.00,2,2,0,2,44396,50000,1969,50000,0,0,0,0,0.00,0.00,0.00,0.00
2016-08-09 03:00:00,2,49195,0,0.00,2,2,0,2,45625,50000,1424,50000,0,0,0,0,0.00,0.00,0.00,0.00
2016-08-09 03:10:00,1,48291,0,0.00,0,2,1,2,44581,50000,2192,49542,0,0,0,0,0.00,0.00,0.00,0.00
2016-08-09 03:20:00,2,50000,0,0.00,2,2,0,2,50000,50000,0,50000,0,0,0,0,0.00,0.00,0.00,0.00
2016-08-09 03:30:00,2,49976,0,0.00,2,2,0,2,49755,50000,74,50000,0,0,0,0,0.00,0.00,0.00,0.00
2016-08-09 03:40:00,2,49886,0,0.00,0,2,1,2,48864,50000,341,50000,0,0,0,0,0.00,0.00,0.00,0.00
2016-08-09 03:50:00,0,49180,0,0.00,0,2,1,0,46198,50000,1324,50000,0,0,0,0,0.00,0.00,0.00,0.00
2016-08-09 04:00:00,2,50000,0,0.00,0,2,1,2,50000,50000,0,50000,0,0,0,0,0.00,0.00,0.00,0.00
2016-08-09 04:10:00,2,48978,0,0.00,2,2,0,2,41386,50000,2550,50000,0,0,0,0,0.00,0.00,0.00,0.00
2016-08-09 04:20:00,2,48477,0,0.00,2,2,0,2,40894,50000,2984,50000,0,0,0,0,0.00,0.00,0.00,0.00
2016-08-09 04:30:00,2,45765,0,0.00,2,2,0,2,36386,50000,4996,47996,0,0,0,0,0.00,0.00,0.00,0.00
2016-08-09 04:40:00,1,49364,0,0.00,0,2,1,2,44922,50000,1529,50000,0,0,0,0,0.00,0.00,0.00,0.00
2016-08-09 04:50:00,0,49949,0,0.00,0,0,0,0,49489,50000,153,50000,0,0,0,0,0.00,0.00,0.00,0.00
2016-08-09 05:00:00,1,49817,0,0.00,0,2,1,1,48169,50000,549,50000,0,0,0,0,0.00,0.00,0.00,0.00
2016-08-09 05:10:00,2,49347,0,0.00,0,2,1,2,47266,50000,1012,50000,0,0,0,0,0.00,0.00,0.00,0.00
2016-08-09 05:20:00,2,49796,0,0.00,2,2,0,2,47981,50000,605,50000,0,0,0,0,0.00,0.00,0.00,0.00
2016-08-09 05:30:00,2,49697,0,0.00,2,2,0,2,47735,50000,692,50000,0,0,0,0,0.00,0.00,0.00,0.00
2016-08-09 05:40:00,2,49700,0,0.00,2,2,0,2,47544,50000,737,50000,0,0,0,0,0.00,0.00,0.00,0.00
2016-08-09 05:50:00,2,49648,0,0.00,2,2,0,2,47998,50000,614,50000,0,0,0,0,0.00,0.00,0.00,0.00
2016-08-09 06:00:00,2,48926,0,0.00,2,2,0,2,45399,50000,1630,50000,0,0,0,0,0.00,0.00,0.00,0.00
2016-08-09 06:10:00,2,49060,0,0.00,2,2,0,2,46318,50000,1183,49727,0,0,0,0,0.00,0.00,0.00,0.00
2016-08-09 06:20:00,0,49904,0,0.00,0,2,1,0,49303,50000,215,50000,0,0,0,0,0.00,0.00,0.00,0.00
2016-08-09 06:30:00,0,49844,0,0.00,0,0,0,0,48441,50000,468,50000,0,0,0,0,0.00,0.00,0.00,0.00
2016-08-09 06:40:00,0,49203,0,0.00,0,0,0,0,43515,50000,1947,50000,0,0,0,0,0.00,0.00,0.00,0.00
2016-08-09 06:50:00,0,50000,0,0.00,0,0,0,0,50000,50000,0,50000,0,0,0,0,0.00,0.00,0.00,0.00
2016-08-09 07:00:00,0,49955,0,0.00,0,0,0,0,49547,50000,136,50000,0,0,0,0,0.00,0.00,0.00,0.00
2016-08-09 07:10:00,0,50000,0,0.00,0,0,0,0,50000,50000,0,50000,0,0,0,0,0.00,0.00,0.00,0.00
2016-08-09 07:20:00,0,49441,0,0.00,0,0,0,0,46334,50000,1184,50000,0,0,0,0,0.00,0.00,0.00,0.00
2016-08-09 07:30:00,0,49381,0,0.00,0,0,0,0,46422,50000,1253,50000,0,0,0,0,0.00,0.00,0.00,0.00
2016-08-09 07:40:00,0,49987,0,0.00,0,0,0,0,49867,50000,40,50000,0,0,0,0,0.00,0.00,0.00,0.00
2016-08-09 07:50:00,0,49008,0,0.00,0,0,0,0,44386,50000,1771,50000,0,0,0,0,0.00,0.00,0.00,0.00
2016-08-09 08:00:00,0,49092,0,0.00,0,0,0,0,45207,50000,1598,50000,0,0,0,0,0.00,0.00,0.00,0.00
2016-08-09 08:10:00,0,50000,0,0.00,0,0,0,0,50000,50000,0,50000,0,0,0,0,0.00,0.00,0.00,0.00
2016-08-09 08:20:00,0,50000,0,0.00,0,0,0,0,50000,50000,0,50000,0,0,0,0,0.00,0.00,0.00,0.00
2016-08-09 08:30:00,0,49711,0,0.00,0,0,0,0,48582,50000,488,50000,0,0,0,0,0.00,0.00,0.00,0.00
2016-08-09 08:40:00,0,49477,0,0.00,0,0,0,0,47393,50000,948,50000,0,0,0,0,0.00,0.00,0.00,0.00
2016-08-09 08:50:00,0,49510,0,0.00,0,0,0,0,45102,50000,1469,50000,0,0,0,0,0.00,0.00,0.00,0.00
2016-08-09 09:00:00,0,49112,0,0.00,0,0,0,0,47075,50000,1075,49610,0,0,0,0,0.00,0.00,0.00,0.00
2016-08-09 09:10:00,0,49959,0,0.00,0,0,0,0,49589,50000,123,50000,0,0,0,0,0.00,0.00,0.00,0.00
2016-08-09 09:20:00,0,48488,0,0.00,0,0,0,0,43717,50000,2067,49288,0,0,0,0,0.00,0.00,0.00,0.00
2016-08-09 09:30:00,1,49481,0,0.00,0,2,1,2,46831,50000,973,50000,0,0,0,0,0.00,0.00,0.00,0.00
2016-08-09 09:40:00,0,47221,0,0.00,0,0,0,0,42738,50000,2491,47616,0,0,0,0,0.00,0.00,0.00,0.00
2016-08-09 09:50:00,0,48111,0,0.00,0,0,0,0,43336,50000,2303,49273,0,0,0,0,0.00,0.00,0.00,0.00
2016-08-09 10:00:00,1,48832,0,0.00,0,2,1,1,45190,50000,1598,49952,0,0,0,0,0.00,0.00,0.00,0.00
2016-08-09 10:10:00,2,46502,0,0.00,0,2,1,2,38954,49902,3627,48246,0,0,0,0,0.00,0.00,0.00,0.00
2016-08-09 10:20:00,2,48393,0,0.00,0,2,1,2,45238,50000,1865,49500,0,0,0,0,0.00,0.00,0.00,0.00
2016-08-09 10:30:00,2,49525,0,0.00,2,2,0,2,47526,50000,779,50000,0,0,0,0,0.00,0.00,0.00,0.00
2016-08-09 10:40:00,2,45243,0,0.00,2,2,0,2,40789,50000,3018,44832,0,0,0,0,0.00,0.00,0.00,0.00
2016-08-09 10:50:00,2,45135,0,0.00,2,2,0,2,39504,50000,3545,44988,0,0,0,0,0.00,0.00,0.00,0.00
2016-08-09 11:00:00,2,47483,0,0.00,0,2,1,2,43298,50000,2899,49486,0,0,0,0,0.00,0.00,0.00,0.00
2016-08-09 11:10:00,1,45872,0,0.00,0,2,1,0,43399,48144,1450,46058,0,0,0,0,0.00,0.00,0.00,0.00
2016-08-09 11:20:00,0,43276,0,0.00,0,0,0,0,37795,50000,3580,43158,0,0,0,0,0.00,0.00,0.00,0.00
2016-08-09 11:30:00,0,39697,0,0.00,0,0,0,0,31894,46149,4462,39906,0,0,0,0,0.00,0.00,0.00,0.00
2016-08-09 11:40:00,0,39961,0,0.00,0,0,0,0,34535,44994,3610,40747,0,0,0,0,0.00,0.00,0.00,0.00
2016-08-09 11:50:00,0,39041,0,0.00,0,0,0,0,32411,46424,4388,39565,0,0,0,0,0.00,0.00,0.00,0.00
2016-08-09 12:00:00,0,35009,0,0.00,0,0,0,0,28253,39999,3887,36584,0,0,0,0,0.00,0.00,0.00,0.00
2016-08-09 12:10:00,0,34785,0,0.00,0,0,0,0,29690,39675,3200,34952,0,0,0,0,0.00,0.00,0.00,0.00
2016-08-09 12:20:00,0,37727,0,0.00,0,0,0,0,27656,47420,6186,38762,0,0,0,0,0.00,0.00,0.00,0.00
2016-08-09 12:30:00,0,32700,0,0.00,0,0,0,0,25062,37531,3488,33764,0,0,0,0,0.00,0.00,0.00,0.00
2016-08-09 12:40:00,0,30709,0,0.00,0,0,0,0,28820,33917,1993,29521,0,0,0,0,0.00,0.00,0.00,0.00
2016-08-09 12:50:00,0,33625,0,0.00,0,0,0,0,27994,40736,4308,33071,0,0,0,0,0.00,0.00,0.00,0.00
2016-08-09 13:00:00,0,31983,0,0.00,0,0,0,0,28503,37399,2443,31070,0,0,0,0,0.00,0.00,0.00,0.00
2016-08-09 13:10:00,0,35665,0,0.00,0,0,0,0,31154,39898,2678,35966,0,0,0,0,0.00,0.00,0.00,0.00
2016-08-09 13:20:00,0,39081,0,0.00,0,0,0,0,34189,47224,3928,38219,0,0,0,0,0.00,0.00,0.00,0.00
2016-08-09 13:30:00,0,41685,0,0.00,0,0,0,0,36991,49398,4205,40278,0,0,0,0,0.00,0.00,0.00,0.00
2016-08-09 13:40:00,0,43107,0,0.00,0,0,0,0,39775,48086,2542,43034,0,0,0,0,0.00,0.00,0.00,0.00
2016-08-09 13:50:00,0,42672,0,0.00,0,0,0,0,39178,49639,2730,42196,0,0,0,0,0.00,0.00,0.00,0.00
2016-08-09 14:00:00,0,44630,0,0.00,0,0,0,0,36109,50000,4965,45920,0,0,0,0,0.00,0.00,0.00,0.00
2016-08-09 14:10:00,0,43828,0,0.00,0,0,0,0,40331,48089,2547,43445,0,0,0,0,0.00,0.00,0.00,0.00
2016-08-09 14:20:00,0,42694,0,0.00,0,0,0,0,35391,49325,4109,43432,0,0,0,0,0.00,0.00,0.00,0.00
2016-08-09 14:30:00,0,44137,0,0.00,0,0,0,0,38919,50000,3637,43330,0,0,0,0,0.00,0.00,0.00,0.00
2016-08-09 14:40:00,0,35352,0,0.00,0,0,0,0,31116,41757,3375,34794,0,0,0,0,0.00,0.00,0.00,0.00
2016-08-09 14:50:00,0,34939,0,0.00,0,0,0,0,29954,40361,3711,34476,0,0,0,0,0.00,0.00,0.00,0.00
2016-08-09 15:00:00,0,33662,0,0.00,0,0,0,0,27177,38949,3785,33704,0,0,0,0,0.00,0.00,0.00,0.00
2016-08-09 15:10:00,0,33755,0,0.00,0,0,0,0,28064,38319,3047,34460,0,0,0,0,0.00,0.00,0.00,0.00
2016-08-09 15:20:00,0,32338,0,0.00,0,0,0,0,29674,34715,1680,32416,0,0,0,0,0.00,0.00,0.00,0.00
2016-08-09 15:30:00,0,30956,0,0.00,0,0,0,0,26480,34490,2667,30957,0,0,0,0,0.00,0.00,0.00,0.00
2016-08-09 15:40:00,0,28752,0,0.00,0,0,0,0,23312,34571,2775,28654,0,0,0,0,0.00,0.00,0.00,0.00
2016-08-09 15:50:00,0,26878,0,0.00,0,0,0,0,23366,33588,2712,26110,0,0,0,0,0.00,0.00,0.00,0.00
2016-08-09 16:00:00,0,25605,0,0.00,0,0,0,0,19915,29256,3527,25955,0,0,0,0,0.00,0.00,0.00,0.00
2016-08-09 16:10:00,0,19934,47,0.10,0,0,0,0,17335,22383,1548,19828,0,61,24,61,0.00,0.35,0.11,0.05
2016-08-09 16:20:00,0,15321,54,0.77,0,0,0,0,10686,24705,4756,12912,51,61,4,52,0.00,2.10,0.59,0.80
2016-08-09 16:30:00,0,13765,53,2.08,0,0,0,0,9369,18510,2938,13844,51,61,3,52,0.10,9.35,2.83,0.80
2016-08-09 16:40:00,0,17409,61,2.81,0,0,0,0,11704,21937,3642,19219,61,62,0,61,0.05,19.45,5.91,0.45
2016-08-09 16:50:00,0,19249,57,1.26,0,0,0,0,17096,21264,1200,19228,52,61,4,61,0.60,2.20,0.52,1.15
2016-08-09 17:00:00,0,22050,61,0.99,0,0,0,0,19853,25115,1417,21997,61,61,0,61,0.30,2.05,0.55,1.20
2016-08-09 17:10:00,0,21023,49,0.07,0,0,0,0,18113,23019,1673,21350,0,61,18,51,0.00,0.15,0.07,0.05
2016-08-09 17:20:00,0,20205,31,0.08,0,0,0,0,17804,23101,1635,19748,0,61,28,51,0.00,0.30,0.11,0.00
2016-08-09 17:30:00,0,24084,51,0.19,0,0,0,0,20785,27717,2210,24558,51,51,0,51,0.05,0.30,0.09,0.15
2016-08-09 17:40:00,0,26775,33,0.11,0,0,0,0,23328,34911,3338,25782,0,61,27,51,0.00,0.90,0.26,0.03
2016-08-09 17:50:00,0,31759,25,0.01,0,0,0,0,25643,39909,4265,30939,0,61,28,0,0.00,0.05,0.02,0.00
2016-08-09 18:00:00,0,31531,31,0.08,0,0,0,0,21924,42469,7737,32989,0,61,28,51,0.00,0.35,0.11,0.05
2016-08-09 18:10:00,0,35972,27,0.01,0,0,0,0,30536,40154,2812,35297,0,61,30,0,0.00,0.05,0.02,0.00
2016-08-09 18:20:00,0,31579,0,0.00,0,0,0,0,26710,38445,3446,30913,0,0,0,0,0.00,0.00,0.00,0.00
2016-08-09 18:30:00,0,33356,0,0.00,0,0,0,0,29212,37453,2052,33574,0,0,0,0,0.00,0.00,0.00,0.00
2016-08-09 18:40:00,0,31525,0,0.00,0,0,0,0,28230,35768,2529,31080,0,0,0,0,0.00,0.00,0.00,0.00
2016-08-09 18:50:00,0,24725,0,0.00,0,0,0,0,15564,34977,5245,23758,0,0,0,0,0.00,0.00,0.00,0.00
2016-08-09 19:00:00,0,24506,0,0.00,0,0,0,0,19851,27627,2515,24988,0,0,0,0,0.00,0.00,0.00,0.00
2016-08-09 19:10:00,0,25093,0,0.00,0,0,0,0,21936,27634,1658,25422,0,0,0,0,0.00,0.00,0.00,0.00
2016-08-09 19:20:00,0,24115,0,0.00,0,0,0,0,18093,30335,4109,24174,0,0,0,0,0.00,0.00,0.00,0.00
2016-08-09 19:30:00,0,19017,0,0.00,0,0,0,0,15882,21130,1638,19200,0,0,0,0,0.00,0.00,0.00,0.00
2016-08-09 19:40:00,0,16772,0,0.00,0,0,0,0,13837,20836,2379,15912,0,0,0,0,0.00,0.00,0.00,0.00
2016-08-09 19:50:00,0,13895,0,0.00,0,0,0,0,10006,16117,1786,13902,0,0,0,0,0.00,0.00,0.00,0.00
2016-08-09 20:00:00,0,2646,9,0.00,0,0,0,0,408,7903,2673,1355,0,30,8,10,0.00,0.00,0.00,0.00
2016-08-09 20:10:00,0,504,34,0.00,0,0,0,0,418,607,68,498,34,34,0,34,0.00,0.00,0.00,0.00
2016-08-09 20:20:00,0,380,34,0.00,0,0,0,0,279,602,93,358,34,34,0,34,0.00,0.00,0.00,0.00
2016-08-09 20:30:00,0,693,34,0.00,0,0,0,0,387,1233,235,700,34,34,0,34,0.00,0.00,0.00,0.00
2016-08-09 20:40:00,0,10198,32,0.00,0,0,0,0,2563,14327,4104,12604,30,34,2,30,0.00,0.00,0.00,0.00
2016-08-09 20:50:00,0,17793,35,0.07,0,0,0,0,13335,23497,3714,16580,20,61,15,30,0.00,0.55,0.17,0.00
2016-08-09 21:00:00,0,23983,34,0.01,0,0,0,0,19264,30538,3659,23742,20,61,18,20,0.00,0.10,0.03,0.00
2016-08-09 21:10:00,0,21592,40,0.03,0,0,0,0,18322,23510,1632,21928,20,61,20,36,0.00,0.15,0.05,0.00
2016-08-09 21:20:00,0,21672,27,0.00,0,0,0,0,19298,25639,1927,21658,20,61,15,20,0.00,0.00,0.00,0.00
2016-08-09 21:30:00,0,31458,57,0.57,0,0,0,0,21726,40515,6795,31692,51,61,5,61,0.10,1.80,0.47,0.45
2016-08-09 21:40:00,0,40189,48,0.12,0,0,0,0,19973,50000,12049,49044,20,51,9,51,0.00,0.45,0.17,0.03
2016-08-09 21:50:00,0,28612,8,0.00,0,0,0,0,14010,45852,10144,27643,0,20,10,0,0.00,0.00,0.00,0.00
2016-08-09 22:00:00,0,47010,41,0.33,0,0,0,0,39396,50000,3726,48770,0,61,22,41,0.00,1.20,0.37,0.20
2016-08-09 22:10:00,0,50000,24,0.02,0,0,0,0,50000,50000,0,50000,0,61,30,0,0.00,0.10,0.04,0.00
2016-08-09 22:20:00,0,50000,0,0.00,0,0,0,0,50000,50000,0,50000,0,0,0,0,0.00,0.00,0.00,0.00
2016-08-09 22:30:00,0,49964,0,0.00,0,0,0,0,49645,50000,106,50000,0,0,0,0,0.00,0.00,0.00,0.00
2016-08-09 22:40:00,0,50000,0,0.00,0,0,0,0,50000,50000,0,50000,0,0,0,0,0.00,0.00,0.00,0.00
2016-08-09 22:50:00,0,49727,0,0.00,0,0,0,0,47309,50000,806,50000,0,0,0,0,0.00,0.00,0.00,0.00
2016-08-09 23:00:00,0,49989,0,0.00,0,0,0,0,49889,50000,33,50000,0,0,0,0,0.00,0.00,0.00,0.00
2016-08-09 23:10:00,0,49878,0,0.00,0,0,0,0,49372,50000,244,50000,0,0,0,0,0.00,0.00,0.00,0.00
2016-08-09 23:20:00,0,49529,0,0.00,0,0,0,0,46366,50000,1102,50000,0,0,0,0,0.00,0.00,0.00,0.00
2016-08-09 23:30:00,0,49815,0,0.00,0,0,0,0,48915,50000,377,50000,0,0,0,0,0.00,0.00,0.00,0.00
2016-08-09 23:40:00,0,50000,36,0.14,0,0,0,0,50000,50000,0,50000,0,51,18,41,0.00,0.50,0.16,0.05
2016-08-09 23:50:00,0,50000,17,0.01,0,0,0,0,50000,50000,0,50000,0,61,27,0,0.00,0.10,0.03,0.00
